User: anonymous   Login
Location: Unspecified
(0.0000°N, 0.0000°E)
Time: 05:34:10
(UTC+00:00)
Language:

UNISAT 3 - Orbit

View from above orbital plane
View from above orbital plane
View from above satellite
View from above satellite

Ground track
Ground track

The orbit data is extracted from the following two-line orbital elements,

1 28373U 04025H   19083.84303891  .00000052  00000-0  26874-4 0  9999
2 28373  98.4071  26.9628 0069975  52.6572 308.0967 14.45533533777178
Epoch (UTC): 24 March 2019 20:13:58
Eccentricity: 0.0069975
inclination: 98.4071°
perigee height: 690 km
apogee height: 790 km
right ascension of ascending node: 26.9628°
argument of perigee: 52.6572°
revolutions per day: 14.45533533
mean anomaly at epoch: 308.0967°
orbit number at epoch: 77717

The dashed part of the orbit path shows where the satellite is in the earth's shadow,  

DLR